Preview of NWS' New Version of Forecast
This preview is not operational and should not be used for support decisions.

Regional Weather Roundup (RWR)

Issued by National Weather Service (NWS)

                            
000
ASCA42 TJSJ 202010
RWRPR 
PUERTO RICO/U.S. VIRGIN ISLANDS HOURLY WEATHER ROUNDUP
NATIONAL WEATHER SERVICE SAN JUAN PR
400 PM AST TUE AUG 20 2019

PRZ001>002-007>008-010-202100-
PUERTO RICO
  
CITY           SKY/WX    TMP DP  RH WIND       PRES   REMARKS
SAN JUAN LMM   MOSUNNY   88  77  70 NE17      30.01S HX 100           
AGUADILLA      PTSUNNY   77  73  88 SE5       30.03F                  
CEIBA          MOSUNNY   88  75  66 NE7       30.03S HX  97           
$$

VIZ001>002-202100-
U.S. VIRGIN ISLANDS
  
CITY           SKY/WX    TMP DP  RH WIND       PRES   REMARKS
CHARLOTTE AMA  MOSUNNY   88  75  66 E9        30.00S HX  97           
CHRISTIANSTED  MOSUNNY   88  73  62 E15       30.00F HX  96           
$$

HOURLY WEATHER ROUNDUP FOR THE NEWS MEDIA
  
CITY           SKY/WX    TMP DP  RH WIND       PRES   REMARKS
ORLANDO        FAIR      84  73  69 SE8       30.08F HX  90           
NEW YORK       FAIR      84  65  52 S12       30.08F                  
NEWARK         FAIR      86  65  49 S12       30.05F                  
CHICAGO        LGT RAIN  72  68  87 SE3       29.99S                  
HARTFORD       FAIR      85  54  34 SW9       30.05R                  
BOSTON         FAIR      80  61  52 E14       30.05S                  
DALLAS         MOSUNNY  100  66  32 SE10      29.98F HX 104           
PHILADELPHIA   PTSUNNY   90  67  46 S5        30.04F HX  93           
LOS ANGELES    MOSUNNY   76  63  64 W13       29.93F                  
WASHINGTON DC  PTSUNNY   92  70  48 E5        30.02F HX  97